Weather History for Pituffik, Greenland

Change the Weather History Date:

Tuesday, October 30, 2012

  Actual Average Record
Temperature  
Mean Temperature 6 °F -  
Max Temperature 17 °F 9 °F 29 °F (2014)
Min Temperature -4 °F -4 °F -9 °F (1997)
Degree Days  
Heating Degree Days 58    
Moisture  
Dew Point 9 °F    
Average Humidity 82    
Maximum Humidity 93    
Minimum Humidity 62    
Precipitation  
Precipitation 0.00 in 0.01 in - ()
Sea Level Pressure  
Sea Level Pressure 30.12 in    
Wind  
Wind Speed 22 mph ()    
Max Wind Speed 30 mph    
Max Gust Speed 37 mph    
Visibility 2.9 miles    
Events Fog , Snow    
Averages and records for this station are not official NWS values.
T = Trace of Precipitation, MM = Missing Value Source: Averaged Metar Reports

Daily Weather History Graph

Daily Weather History Graph

Search for Another Location

Airport:

Trip Planner

Search our weather history database for the weather conditions in past years. The results will help you decide how hot, cold, wet, or windy it might be!

Date:

Astronomy

Oct. 30, 2012 Rise Set
Actual Time 12:33 PM ADT 2:01 PM ADT
Civil Twilight 9:40 AM ADT 4:54 PM ADT
Nautical Twilight 7:46 AM ADT 6:48 PM ADT
Astronomical Twilight 6:01 AM ADT 8:32 PM ADT
Moon No Moon Rise No Moon Set
Length of Visible Light 7h 14m
Length of Day
1h 28m
Waxing Gibbous, 99% of the Moon is Illuminated
Oct 30
Waxing Gibbous
Nov 6
Last Quarter
Nov 13
New
Nov 20
First Quarter
Nov 28
Full

Hourly Weather History & Observations

Time (ADT) Temp. Windchill Dew Point Humidity Pressure Visibility Wind Dir Wind Speed Gust Speed Precip Events Conditions
12:04 AM 17.6 °F -0.6 °F 12.2 °F 79% 29.95 in 6.2 mi SSW 25.3 mph - N/A Snow Light Snow
12:19 AM 17.6 °F -1.6 °F 14.0 °F 86% 29.96 in 5.0 mi SSW 28.8 mph - N/A Snow Light Snow
12:25 AM 15.8 °F -3.4 °F 14.0 °F 93% 29.96 in 5.0 mi SW 26.5 mph - N/A Snow Light Snow
12:42 AM 15.8 °F -2.7 °F 14.0 °F 93% 29.97 in 6.2 mi SSW 24.2 mph - N/A Snow Light Snow
12:45 AM 15.8 °F -2.7 °F 12.2 °F 86% 29.97 in 6.2 mi SW 24.2 mph - N/A   Overcast
12:54 AM 15.8 °F -2.3 °F 12.2 °F 86% 29.97 in 6.2 mi SSW 23.0 mph - N/A   Scattered Clouds
12:58 AM 15.8 °F -1.9 °F 12.2 °F 86% 29.95 in 6.2 mi SSW 21.9 mph - 0.00 in   Scattered Clouds
1:06 AM 15.8 °F -1.9 °F 10.4 °F 79% 29.98 in 6.2 mi SSW 21.9 mph - N/A Snow Light Snow
1:11 AM 17.6 °F 1.3 °F 12.2 °F 79% 29.98 in 6.2 mi SSW 19.6 mph - N/A Snow Light Snow
1:13 AM 17.6 °F 1.3 °F 12.2 °F 79% 29.98 in 6.2 mi SSW 19.6 mph - N/A Snow Light Snow
1:14 AM 17.6 °F 0.9 °F 12.2 °F 79% 29.99 in 6.2 mi SSW 20.7 mph - N/A Snow Light Snow
1:27 AM 17.6 °F 0.5 °F 14.0 °F 86% 29.99 in 5.6 mi SSW 21.9 mph - N/A Snow Light Snow
1:43 AM 17.6 °F -0.6 °F 12.2 °F 79% 30.00 in 6.2 mi SSW 25.3 mph - N/A Snow Light Snow
1:51 AM 15.8 °F -2.7 °F 12.2 °F 86% 30.01 in 6.2 mi SSW 24.2 mph - N/A Snow Light Snow
1:58 AM 15.8 °F -2.7 °F 12.2 °F 86% 29.98 in 6.2 mi SSW 24.2 mph - 0.00 in Snow Light Snow
2:02 AM 15.8 °F -2.3 °F 12.2 °F 86% 30.01 in 6.2 mi SSW 23.0 mph - N/A   Overcast
2:23 AM 15.8 °F 0.9 °F 10.4 °F 79% 30.03 in 6.2 mi South 15.0 mph 24.2 mph N/A   Scattered Clouds
2:58 AM 15.8 °F -1.9 °F 10.4 °F 79% 30.01 in 5.6 mi South 21.9 mph - 0.00 in   Haze
3:33 AM 14.0 °F -4.3 °F 8.6 °F 79% 30.05 in 6.2 mi SE 21.9 mph - N/A   Partly Cloudy
3:35 AM 14.0 °F -4.7 °F 8.6 °F 79% 30.05 in 5.0 mi SE 23.0 mph - N/A Snow Light Snow
3:39 AM 14.0 °F -5.8 °F 8.6 °F 79% 30.05 in 2.5 mi SE 26.5 mph - N/A Snow Light Snow
3:40 AM 14.0 °F -5.5 °F 8.6 °F 79% 30.05 in - SE 25.3 mph - N/A Snow Light Snow
3:41 AM 14.0 °F -5.5 °F 8.6 °F 79% 30.06 in 1.7 mi SE 25.3 mph - N/A Snow Light Snow
3:42 AM 14.0 °F -5.8 °F 8.6 °F 79% 30.05 in 1.5 mi SE 26.5 mph - N/A Snow Light Snow
3:44 AM 14.0 °F -5.5 °F 10.4 °F 86% 30.05 in 1.0 mi SE 25.3 mph - N/A Snow Light Snow
3:47 AM 14.0 °F -5.5 °F 10.4 °F 86% 30.06 in 0.7 mi SE 25.3 mph - N/A Snow Light Snow
3:49 AM 14.0 °F -5.5 °F 10.4 °F 86% 30.06 in 0.7 mi SE 25.3 mph - N/A Snow Light Snow
3:56 AM 14.0 °F -5.8 °F 10.4 °F 86% 30.06 in 0.7 mi SE 26.5 mph - N/A Snow Light Snow
3:58 AM 14.0 °F -5.5 °F 10.4 °F 86% 30.03 in 0.7 mi SE 25.3 mph - 0.00 in Snow Light Snow
4:07 AM 14.0 °F -6.8 °F 10.4 °F 86% 30.06 in 0.5 mi SE 29.9 mph - N/A Fog , Snow Light Freezing Fog
4:09 AM 14.0 °F -6.2 °F 10.4 °F 86% 30.07 in 0.5 mi ESE 27.6 mph - N/A Fog , Snow Light Freezing Fog
4:14 AM 14.0 °F -6.8 °F 10.4 °F 86% 30.07 in 0.2 mi SE 29.9 mph - N/A Fog , Snow Light Freezing Fog
4:19 AM 14.0 °F -6.5 °F 10.4 °F 86% 30.07 in 0.5 mi ESE 28.8 mph - N/A Fog , Snow Light Freezing Fog
4:46 AM 14.0 °F -5.1 °F 10.4 °F 86% 30.07 in 0.5 mi SE 24.2 mph 34.5 mph N/A Fog , Snow Light Freezing Fog
4:47 AM 14.0 °F -4.7 °F 10.4 °F 86% 30.07 in 0.7 mi SE 23.0 mph 34.5 mph N/A Snow Light Snow
4:50 AM 15.8 °F -1.9 °F 12.2 °F 86% 30.08 in 1.0 mi SE 21.9 mph 34.5 mph N/A Snow Light Snow
4:53 AM 15.8 °F -0.2 °F 12.2 °F 86% 30.08 in 1.2 mi SE 17.3 mph - N/A Snow Light Snow
4:54 AM 15.8 °F 0.3 °F 12.2 °F 86% 30.08 in 1.2 mi SE 16.1 mph - N/A Snow Light Snow
4:55 AM 15.8 °F -0.2 °F 12.2 °F 86% 30.08 in 1.5 mi SE 17.3 mph - N/A Snow Light Snow
4:56 AM 15.8 °F -0.6 °F 12.2 °F 86% 30.08 in 1.7 mi SE 18.4 mph - N/A Snow Light Snow
4:57 AM 15.8 °F -0.6 °F 12.2 °F 86% 30.09 in - SE 18.4 mph - N/A Snow Light Snow
4:58 AM 15.8 °F -0.2 °F 12.2 °F 86% 30.06 in - SE 17.3 mph - 0.00 in Snow Light Snow
4:59 AM 15.8 °F 0.3 °F 12.2 °F 86% 30.09 in - SE 16.1 mph - N/A Snow Light Snow
5:01 AM 15.8 °F 0.9 °F 12.2 °F 86% 30.09 in 2.5 mi SE 15.0 mph - N/A Snow Light Snow
5:03 AM 15.8 °F 0.9 °F 12.2 °F 86% 30.09 in - SE 15.0 mph - N/A Snow Light Snow
5:05 AM 15.8 °F 0.3 °F 12.2 °F 86% 30.09 in - SE 16.1 mph - N/A Snow Light Snow
5:13 AM 15.8 °F -1.5 °F 12.2 °F 86% 30.09 in - SE 20.7 mph - N/A Snow Light Snow
5:15 AM 17.6 °F 0.5 °F 12.2 °F 79% 30.09 in - SE 21.9 mph 29.9 mph N/A Snow Light Snow
5:16 AM 15.8 °F -1.1 °F 12.2 °F 86% 30.10 in 1.7 mi SSE 19.6 mph 29.9 mph N/A Snow Light Snow
5:19 AM 15.8 °F -4.1 °F 12.2 °F 86% 30.09 in 1.0 mi ESE 28.8 mph 33.4 mph N/A Snow Light Snow
5:21 AM 15.8 °F -2.3 °F 12.2 °F 86% 30.10 in 0.7 mi ESE 23.0 mph 33.4 mph N/A Snow Light Snow
5:22 AM 15.8 °F -1.9 °F 12.2 °F 86% 30.10 in 0.7 mi SE 21.9 mph 33.4 mph N/A Snow Light Snow
5:28 AM 15.8 °F -4.1 °F 12.2 °F 86% 30.09 in 1.0 mi SE 28.8 mph 33.4 mph N/A Snow Light Snow
5:37 AM 15.8 °F -2.7 °F 10.4 °F 79% 30.10 in 1.0 mi SE 24.2 mph 34.5 mph N/A Snow Light Snow
5:42 AM 15.8 °F -4.1 °F 10.4 °F 79% 30.10 in 0.7 mi SE 28.8 mph 34.5 mph N/A Snow Light Snow
5:45 AM 15.8 °F -3.4 °F 10.4 °F 79% 30.11 in 0.7 mi SE 26.5 mph 34.5 mph N/A Snow Light Snow
5:49 AM 15.8 °F -3.4 °F 10.4 °F 79% 30.11 in 0.5 mi SE 26.5 mph 34.5 mph N/A Fog , Snow Light Freezing Fog
5:58 AM 15.8 °F -3.4 °F 10.4 °F 79% 30.08 in 0.5 mi SE 26.5 mph - 0.00 in Fog , Snow Light Freezing Fog
6:00 AM 14.0 °F -6.5 °F 10.4 °F 86% 30.10 in 0.7 mi SE 28.8 mph 36.8 mph N/A Snow Light Snow
6:08 AM 14.0 °F -4.3 °F 10.4 °F 86% 30.12 in 0.7 mi SE 21.9 mph 36.8 mph N/A Snow Light Snow
6:24 AM 15.8 °F -2.7 °F 12.2 °F 86% 30.12 in 0.7 mi SE 24.2 mph 31.1 mph N/A Snow Light Snow
6:27 AM 15.8 °F -3.7 °F 12.2 °F 86% 30.13 in 1.0 mi SE 27.6 mph - N/A Snow Light Snow
6:33 AM 15.8 °F -1.9 °F 12.2 °F 86% 30.13 in 1.2 mi SE 21.9 mph 29.9 mph N/A Snow Light Snow
6:34 AM 15.8 °F -1.9 °F 12.2 °F 86% 30.13 in 1.2 mi SE 21.9 mph 29.9 mph N/A Snow Light Snow
6:35 AM 15.8 °F -1.5 °F 12.2 °F 86% 30.13 in 1.5 mi SE 20.7 mph 29.9 mph N/A Snow Light Snow
6:36 AM 15.8 °F -1.1 °F 12.2 °F 86% 30.13 in 1.5 mi SE 19.6 mph 29.9 mph N/A Snow Light Snow
6:39 AM 15.8 °F -2.7 °F 12.2 °F 86% 30.13 in 2.5 mi SE 24.2 mph - N/A Snow Light Snow
6:43 AM 15.8 °F -4.1 °F 10.4 °F 79% 30.14 in - SE 28.8 mph 33.4 mph N/A Snow Light Snow
6:44 AM 15.8 °F -3.4 °F 10.4 °F 79% 30.14 in 1.7 mi SE 26.5 mph 33.4 mph N/A Snow Light Snow
6:47 AM 15.8 °F -3.4 °F 10.4 °F 79% 30.14 in 1.5 mi SE 26.5 mph 33.4 mph N/A Snow Light Snow
6:49 AM 15.8 °F -3.4 °F 10.4 °F 79% 30.14 in 1.2 mi SE 26.5 mph 33.4 mph N/A Snow Light Snow
6:51 AM 15.8 °F -3.4 °F 10.4 °F 79% 30.15 in 1.0 mi SE 26.5 mph - N/A Snow Light Snow
6:54 AM 15.8 °F -3.4 °F 12.2 °F 86% 30.15 in 0.7 mi SE 26.5 mph - N/A Snow Light Snow
6:57 AM 15.8 °F -3.1 °F 10.4 °F 79% 30.16 in 0.5 mi ESE 25.3 mph - N/A Fog , Snow Light Freezing Fog
6:58 AM 15.8 °F -3.1 °F 10.4 °F 79% 30.12 in 0.5 mi ESE 25.3 mph - 0.00 in Fog , Snow Light Freezing Fog
7:01 AM 14.0 °F -4.3 °F 10.4 °F 86% 30.16 in 0.5 mi ESE 21.9 mph - N/A Fog , Snow Light Freezing Fog
7:07 AM 14.0 °F -5.5 °F 10.4 °F 86% 30.16 in 0.5 mi ESE 25.3 mph - N/A Fog , Snow Light Freezing Fog
7:21 AM 14.0 °F -5.1 °F 10.4 °F 86% 30.16 in 0.5 mi SE 24.2 mph - N/A Fog , Snow Light Freezing Fog
7:23 AM 14.0 °F -5.1 °F 10.4 °F 86% 30.16 in 0.7 mi SE 24.2 mph - N/A Snow Light Snow
7:29 AM 14.0 °F -4.7 °F 10.4 °F 86% 30.16 in 0.7 mi SE 23.0 mph - N/A Snow Light Snow
7:30 AM 14.0 °F -4.7 °F 10.4 °F 86% 30.16 in 1.0 mi SE 23.0 mph - N/A Snow Light Snow
7:33 AM 14.0 °F -4.7 °F 10.4 °F 86% 30.16 in 1.0 mi SE 23.0 mph - N/A Snow Light Snow
7:35 AM 14.0 °F -5.1 °F 10.4 °F 86% 30.16 in 1.2 mi SE 24.2 mph - N/A Snow Light Snow
7:36 AM 14.0 °F -5.1 °F 10.4 °F 86% 30.16 in 1.2 mi SE 24.2 mph - N/A Snow Light Snow
7:37 AM 14.0 °F -5.5 °F 10.4 °F 86% 30.16 in 1.2 mi SE 25.3 mph - N/A Snow Light Snow
7:38 AM 14.0 °F -5.5 °F 10.4 °F 86% 30.16 in 1.2 mi SE 25.3 mph - N/A Snow Light Snow
7:40 AM 14.0 °F -5.5 °F 10.4 °F 86% 30.16 in 1.2 mi SE 25.3 mph - N/A   Mostly Cloudy
7:41 AM 14.0 °F -5.5 °F 10.4 °F 86% 30.16 in 1.2 mi SE 25.3 mph - N/A   Mostly Cloudy
7:42 AM 14.0 °F -5.5 °F 10.4 °F 86% 30.16 in 1.2 mi SE 25.3 mph - N/A   Mostly Cloudy
7:52 AM 14.0 °F -5.1 °F 8.6 °F 79% 30.17 in - SE 24.2 mph - N/A   Haze
7:55 AM 14.0 °F -3.0 °F 8.6 °F 79% 30.17 in 2.5 mi SE 18.4 mph - N/A   Haze
7:57 AM 14.0 °F -3.0 °F 8.6 °F 79% 30.17 in - SE 18.4 mph - N/A   Haze
7:58 AM 14.0 °F -3.9 °F 8.6 °F 79% 30.14 in - SE 20.7 mph - 0.00 in   Haze
8:07 AM 14.0 °F -3.9 °F 8.6 °F 79% 30.17 in 2.5 mi SE 20.7 mph - N/A   Haze
8:15 AM 14.0 °F -5.5 °F 8.6 °F 79% 30.17 in - SE 25.3 mph - N/A   Haze
8:34 AM 12.2 °F -8.6 °F 6.8 °F 79% 30.17 in 2.5 mi SE 27.6 mph - N/A   Haze
8:42 AM 12.2 °F -6.7 °F 6.8 °F 79% 30.18 in - SE 21.9 mph - N/A   Haze
8:54 AM 10.4 °F -9.1 °F 5.0 °F 79% 30.18 in 2.5 mi SE 21.9 mph - N/A   Haze
8:58 AM 10.4 °F -9.9 °F 5.0 °F 79% 30.15 in 2.5 mi SE 24.2 mph - N/A   Haze
9:17 AM 10.4 °F -8.2 °F 5.0 °F 79% 30.20 in - East 19.6 mph - N/A   Haze
9:18 AM 10.4 °F -9.1 °F 5.0 °F 79% 30.20 in - East 21.9 mph - N/A   Haze
9:58 AM 10.4 °F -5.4 °F 1.4 °F 67% 30.19 in 6.2 mi ESE 13.8 mph - N/A   Clear
10:58 AM 8.6 °F -1.3 °F -2.2 °F 62% 30.22 in 6.2 mi ESE 5.8 mph - N/A   Clear
11:58 AM 10.4 °F -6.6 °F 3.2 °F 73% 30.23 in 6.2 mi East 16.1 mph - N/A   Clear
12:58 PM 6.8 °F -9.3 °F -2.2 °F 67% 30.25 in 6.2 mi East 12.7 mph - N/A   Clear
1:58 PM 3.2 °F -13.9 °F -5.8 °F 66% 30.27 in 6.2 mi East 12.7 mph - N/A   Clear
2:58 PM 1.4 °F -14.5 °F -5.8 °F 72% 30.28 in 6.2 mi East 10.4 mph - N/A   Clear
3:58 PM -0.4 °F -18.4 °F -7.6 °F 72% 30.30 in 6.2 mi East 12.7 mph - N/A   Clear
4:58 PM -4.0 °F -24.5 °F -11.2 °F 71% 30.31 in 6.2 mi East 15.0 mph - N/A   Clear
5:58 PM -2.2 °F -22.9 °F -9.4 °F 71% 30.32 in 6.2 mi East 16.1 mph - N/A   Clear
6:58 PM -2.2 °F -24.1 °F -9.4 °F 71% 30.32 in 6.2 mi East 18.4 mph - N/A   Clear
7:58 PM -0.4 °F -19.2 °F -7.6 °F 72% 30.33 in 6.2 mi East 13.8 mph - N/A   Clear
8:58 PM -2.2 °F -22.2 °F -9.4 °F 71% 30.33 in 6.2 mi East 15.0 mph - N/A   Clear
9:58 PM 1.4 °F -16.1 °F -7.6 °F 66% 30.33 in 6.2 mi East 12.7 mph - N/A   Clear
10:58 PM -2.2 °F -19.9 °F -9.4 °F 71% 30.32 in 6.2 mi East 11.5 mph - N/A   Clear
11:58 PM -4.0 °F -23.7 °F -11.2 °F 71% 30.33 in 6.2 mi East 13.8 mph - N/A   Clear